Location: Kuffner-Sternwarte
(48.2130°N, 16.2960°E)
Time: 22:43:25
(UTC+02:00)

ISS - Visible Passes

Search period start: 13 September 2024 00:00
Search period end: 23 September 2024 00:00
Orbit: 414 x 424 km, 51.6° (Epoch: 13 September)

Date Brightness Start Highest point End Pass type
(mag) Time Alt. Az. Time Alt. Az. Time Alt. Az.
13 Sep -2.6 19:52:07 10° SSW 19:54:58 26° SE 19:57:45 11° E visible
13 Sep -2.9 21:28:11 10° WSW 21:30:44 47° W 21:30:44 47° W visible
14 Sep -3.9 20:40:39 10° WSW 20:44:01 83° SSE 20:45:21 34° ENE visible
14 Sep -0.7 22:17:45 10° W 22:18:19 14° WNW 22:18:19 14° WNW visible
15 Sep -3.6 19:53:10 10° SW 19:56:28 58° SSE 19:59:48 10° ENE visible
15 Sep -2.6 21:30:04 10° W 21:32:45 43° NW 21:32:45 43° NW visible
16 Sep -3.3 20:42:19 10° W 20:45:39 59° NNW 20:47:02 31° NE visible
16 Sep -0.5 22:19:30 10° WNW 22:19:58 13° WNW 22:19:58 13° WNW visible
17 Sep -3.6 19:54:34 10° WSW 19:57:55 74° NNW 20:01:12 11° ENE visible
17 Sep -2.2 21:31:44 10° WNW 21:34:08 35° NW 21:34:08 35° NW visible
18 Sep -2.9 20:43:53 10° W 20:47:08 45° N 20:48:12 33° NE visible
18 Sep -0.3 22:20:54 10° WNW 22:21:08 12° WNW 22:21:08 12° WNW visible
19 Sep -3.1 19:55:58 10° W 19:59:15 50° N 20:02:10 13° ENE visible
19 Sep -1.9 21:33:04 10° WNW 21:35:06 31° NW 21:35:06 31° NW visible
20 Sep -3.1 20:45:10 10° WNW 20:48:26 46° N 20:49:00 41° NE visible
21 Sep -2.9 19:57:11 10° WNW 20:00:25 44° N 20:02:50 16° ENE visible
21 Sep -1.6 21:34:06 10° WNW 21:35:45 27° WNW 21:35:45 27° WNW visible
22 Sep -3.6 20:46:06 10° WNW 20:49:27 61° NNE 20:49:33 60° NNE visible
